Powrót do katalogu

TITAN 3C TRANSTAGE DEB

LostHEO
NORAD 26779·DEBRIS·🇺🇸 United States

Wystrzelony Dec 21, 1965 z Cape Canaveral Space Force Station

Loading…

Następne Przeloty (najbliższe 24 godziny)

TLE

NieaktualneSource: Space-Track

Epoka: Jun 26, 2026, 10:48 UTC

1 26779U 65108AX  26177.45050977 -.00000189  00000-0  48913-3 0  9998
2 26779  26.7892  71.3916 6748767 204.9416 356.3029  2.60257249230353

Śledź TITAN 3C TRANSTAGE DEB w czasie rzeczywistym z AllMySat

Download on the App Store